STARLINK-11180, 60185

Orbit data source: Space-Track

STARLINK-11180, 60185 is a payload satellite owned by SpaceX/Seattle (US) in LEO that was launched on Wed, 03 Jul 2024 UTC via an FALCON 9 launch vehicle from the Air Force Eastern Test Range (AFETR). Payload-class satellites include a variety of spacecraft equipped with specific instruments for various scientific and technological missions. These include communications satellites like Starlink; space stations such as the ISS; scientific satellites like the Hubble; Earth observation satellites from companies like Planet Labs, Umbra, and HawkEye 360; GPS; miniature CubeSats for education and research; and military/defense satellites.

Loading next visibility...
Identifier
60185, 2024-124C
Orbit
LEO
Country
Flag of USUS
Related business
Manufacturer
SpaceX/Seattle
Mission
Operational Commercial Communications
Bus & Motor
STARLINK V2MD, Unknown motor
Mass
960 kg wet, ~910 kg dry
Launch date (UTC)
2024-07-03 (2 years ago)
Launch vehicle
FALCON 9
Launch site
Air Force Eastern Test Range (AFETR)
Object type
Payload
Rocket body
Debris
Shape & HBR
Box + 2 Pan, 18.1 m
Radar Cross Section
36.964 m², Large (>1 m²)

Expand to show TLE details & history
Last TLE update: 1 day ago

TLE from 1 day ago
0 STARLINK-11180
1 60185U 24124C   26036.96268424 -.00002632  00000-0 -16876-4 0  9998
2 60185  53.1569 317.4586 0001344 113.6380 246.4779 15.69701737 91554
Epoch: 2026-02-05T23:06Z
TLE epoch observation values (Epoch: 2026-02-05T23:06:15.918Z)
Latitude
-0.00002°
Longitude
-165.21512°
Altitude
361.027 km
Speed
7.694 km/s
True Right ascension
21h 09m 50s
True Declination
0° 00' 00"
Sunlit
Object was in daylight at epoch
Visualization orbit readout
Latitude
Unknown
Longitude
Unknown
Altitude
Unknown
Speed
Unknown
Apparent Right ascension
Unknown
Apparent Declination
Unknown
Sunlit
N/A
Visualization observer readout
Local Sidereal Time
06:51:35
Azimuth
Unknown
Elevation
Unknown
Doppler factor
Unknown
Orbital elements
Apogee altitude
360.917 km
Perigee altitude
359.106 km
Semi-major axis
6,738.149 km
Eccentricity
0.00013
Inclination
53.1569°
RAAN
317.4586°
Arg. of periapsis
113.638°
True anomaly
246.46378°
Mean anomaly
246.4779°
Eccentric anomaly
246.47084°
Mean motion
3.92403 °/min
Orbital period
91.74 mins
BSTAR
-0.000016876
Loading maneuver chart data...
Computing Atmospheric mass density...
Loading historical data...
Loading historical data...
Loading historical data...
Loading historical data...
Loading historical data...
Loading historical data...
Loading historical data...

Documentation

Showing up to 5 results
|